Weather History for Santa Fe, NM

Change the Weather History Date:

Friday, October 18, 2013

  Actual Average Record
Temperature  
Mean Temperature 44 °F -  
Max Temperature 60 °F 66 °F 82 °F (2003)
Min Temperature 28 °F 28 °F 21 °F (1980)
Degree Days  
Heating Degree Days 22    
Moisture  
Dew Point 19 °F    
Average Humidity 44    
Maximum Humidity 76    
Minimum Humidity 14    
Precipitation  
Precipitation 0.00 in - - ()
Sea Level Pressure  
Sea Level Pressure 29.99 in    
Wind  
Wind Speed 6 mph (East)    
Max Wind Speed 22 mph    
Max Gust Speed 30 mph    
Visibility 10 miles    
Events      
Averages and records for this station are not official NWS values.
T = Trace of Precipitation, MM = Missing Value Source: NWS Daily Summary

Daily Weather History Graph

Daily Weather History Graph

Search for Another Location

Airport:

Trip Planner

Search our weather history database for the weather conditions in past years. The results will help you decide how hot, cold, wet, or windy it might be!

Date:

Astronomy

Oct. 18, 2013 Rise Set
Actual Time 7:13 AM MDT 6:24 PM MDT
Civil Twilight 6:47 AM MDT 6:50 PM MDT
Nautical Twilight 6:18 AM MDT 7:20 PM MDT
Astronomical Twilight 5:48 AM MDT 7:49 PM MDT
Moon 6:17 PM MDT (10/18) 6:52 AM MDT (10/18)
Length of Visible Light 12h 02m
Length of Day
11h 10m
Full, 100% of the Moon is Illuminated
Oct 18
Full
Oct 18
Full
Oct 26
Last Quarter
Nov 3
New
Nov 9
First Quarter

Hourly Weather History & Observations

Time (MDT) Temp. Windchill Dew Point Humidity Pressure Visibility Wind Dir Wind Speed Gust Speed Precip Events Conditions
12:53 AM 36.0 °F 32.1 °F 18.0 °F 48% 29.91 in 10.0 mi North 4.6 mph - N/A   Clear
1:53 AM 36.0 °F 33.3 °F 18.0 °F 48% 29.90 in 10.0 mi NNE 3.5 mph - N/A   Clear
2:53 AM 28.9 °F - 18.0 °F 64% 29.92 in 10.0 mi Calm Calm - N/A   Clear
3:53 AM 34.0 °F 28.0 °F 16.0 °F 48% 29.88 in 10.0 mi NNE 6.9 mph - N/A   Clear
4:53 AM 32.0 °F 27.5 °F 17.1 °F 54% 29.90 in 10.0 mi North 4.6 mph - N/A   Clear
5:53 AM 30.0 °F 26.5 °F 18.0 °F 61% 29.92 in 10.0 mi North 3.5 mph - N/A   Clear
6:53 AM 28.9 °F - 17.1 °F 61% 29.95 in 10.0 mi Calm Calm - N/A   Clear
7:53 AM 30.9 °F 27.5 °F 18.0 °F 59% 29.99 in 10.0 mi North 3.5 mph - N/A   Clear
8:53 AM 41.0 °F - 16.0 °F 36% 29.98 in 10.0 mi Calm Calm - N/A   Clear
9:53 AM 45.0 °F 42.6 °F 17.1 °F 33% 30.00 in 10.0 mi SSW 4.6 mph - N/A   Clear
10:53 AM 51.1 °F - 18.0 °F 27% 29.94 in 10.0 mi SW 6.9 mph - N/A   Clear
11:53 AM 53.1 °F - 17.1 °F 24% 29.95 in 10.0 mi WSW 11.5 mph - N/A   Clear
12:53 PM 57.0 °F - 14.0 °F 18% 29.94 in 10.0 mi Variable 4.6 mph - N/A   Clear
1:53 PM 59.0 °F - 15.1 °F 18% 29.91 in 10.0 mi North 11.5 mph 17.3 mph N/A   Clear
2:53 PM 57.9 °F - 12.0 °F 16% 29.95 in 10.0 mi Variable 5.8 mph - N/A   Clear
3:53 PM 59.0 °F - 10.0 °F 14% 29.94 in 10.0 mi NNE 9.2 mph 16.1 mph N/A   Clear
4:53 PM 57.9 °F - 9.0 °F 14% 29.96 in 10.0 mi ESE 5.8 mph - N/A   Clear
5:53 PM 57.0 °F - 8.1 °F 14% 29.99 in 10.0 mi Calm Calm - N/A   Clear
6:53 PM 48.0 °F - 28.0 °F 46% 30.06 in 10.0 mi SE 21.9 mph 29.9 mph N/A   Clear
7:05 PM 46.4 °F 41.1 °F 28.4 °F 50% 30.13 in 10.0 mi SSE 11.5 mph - N/A   Clear
7:53 PM 43.0 °F 36.0 °F 30.0 °F 60% 30.12 in 10.0 mi SSE 13.8 mph - N/A   Clear
8:53 PM 39.0 °F 30.6 °F 28.9 °F 67% 30.13 in 10.0 mi SSE 15.0 mph 20.7 mph N/A   Clear
9:53 PM 37.0 °F 28.5 °F 28.0 °F 70% 30.14 in 10.0 mi SE 13.8 mph 21.9 mph N/A   Clear
10:53 PM 35.1 °F 26.9 °F 28.0 °F 76% 30.14 in 10.0 mi SE 11.5 mph - N/A   Clear
11:53 PM 34.0 °F 26.0 °F 27.0 °F 75% 30.13 in 10.0 mi SE 10.4 mph - N/A   Clear